STARLINK-32427, 61848

Orbit data source: Space-Track

STARLINK-32427, 61848 is a payload satellite owned by SpaceX/Seattle (US) in LEO that was launched on Thu, 07 Nov 2024 UTC via an FALCON 9 launch vehicle from the Air Force Eastern Test Range (AFETR). Payloads include a variety of satellites, spacecraft, and rockets equipped with specific instruments for various scientific and technological missions. These include communications satellites like Starlink; space stations such as the ISS; scientific satellites like the Hubble; Earth observation satellites from companies like Planet Labs, Umbra, and HawkEye 360; GPS; miniature CubeSats for education and research; and military/defense satellites.

Loading next visibility...
STARLINK-32427 details
Identifier
61848, 2024-202D
Orbit
LEO
Last TLE update8 hours ago
Origin
Flag of USSpaceX/Seattle (US)
ManufacturerSpaceX/Seattle
MissionOperational spacecraft
Bus & MotorSTARLINK V2M, Unknown motor
Mass730 kg wet, ~700 kg dry
Launch date (UTC)
2024-11-07 (2 months ago)
Launch vehicle
FALCON 9
Launch site
Air Force Eastern Test Range (AFETR)
Object type
Payload
Rocket body
Debris
Shape & HBRUnknown
Radar Cross SectionLarge (>1 m²)

Expand to show TLE details & history

TLE from 8 hours ago
0 STARLINK-32427
1 61848U 24202D   24361.60184026  .00000802  00000-0  26452-4 0  9993
2 61848  43.0001 201.0958 0001730 275.6092  84.4567 15.40706189  8221
Epoch: 2024-12-26T14:26Z
Definitive object data (Epoch: 2024-12-26T14:26:38.998Z)
Latitude-0.00003°
Longitude-111.14561°
Altitude443.684 km
Speed7.648 km/s
True Right ascension13h 24m 22s
True Declination0° 00' 00"
Sunlit
Object was in daylight at TLE epoch
Visualization TLE readout
Latitude24.13218°
Longitude-84.51356°
Altitude444.343 km
Speed7.649 km/s
Apparent Right ascension12h 51m 53s
Apparent Declination-8° 41' 12"
Sunlit
Object is in daylight
Visualization observer readout
Local Sidereal Time21:46:03
Azimuth294.137° NW
Elevation-38.257°
Doppler factor1
Orbital elements
Apogee altitude447.161 km
Perigee altitude444.8 km
Semi-major axis6,824.117 km
Eccentricity0.000173
Inclination43.0001°
RAAN201.0958°
Arg. of periapsis275.6092°
True anomaly84.47643°
Mean anomaly84.4567°
Eccentric anomaly84.46657°
Mean motion3.85011 °/min
BSTAR0.000026452
Orbital period93.5 mins
Loading maneuver chart data...
Loading historical data...
Loading historical data...
Loading historical data...
Loading historical data...
Loading historical data...
Loading historical data...
Loading historical data...

STARLINK-32427 Visibility forecast

Observer location: undefined°, undefined

Span
Click to sort rows by Start time (UTC) header in descending order
Start Az.
Max El. time (UTC)
Max El. Az.
Max El.
End time (UTC)
End Az.
6 mins2024-12-26 22:41:54.367Z275.173° WNW2024-12-26 22:44:54.367Z209.162° SW30.294°2024-12-26 22:47:54.367Z143.178° SSE
5 mins2024-12-27 17:07:54.367Z228.198° WSW2024-12-27 17:09:54.367Z171.008° S39.385°2024-12-27 17:12:54.367Z79.038° E
5 mins2024-12-27 18:45:54.367Z279.266° WNW2024-12-27 18:47:54.367Z329.803° NNW38.236°2024-12-27 18:50:54.367Z68.097° E
5 mins2024-12-27 20:24:54.367Z300.2° NW2024-12-27 20:26:54.367Z42.014° NE39.252°2024-12-27 20:29:54.367Z90.929° ESE
5 mins2024-12-27 22:02:54.367Z266.041° W2024-12-27 22:04:54.367Z188.706° SSW34.25°2024-12-27 22:07:54.367Z133.918° SE
|